GFSNE_500_temp_057.txt.gz
Temp
-20 -20 -20 -21 -21 -22 -22 -22 -23 -23 -23 -24 -25 -26 -27 -28 -29 -30 -30 -31 -31 -31 -31 -31 -31 -31 -31 -31 -31 -31 -31 -30 -30 -30 -30 -30 -29 -29
-20 -21 -21 -21 -22 -22 -23 -23 -24 -24 -25 -26 -28 -29 -30 -30 -31 -31 -31 -32 -32 -32 -32 -32 -32 -33 -32 -32 -31 -31 -30 -30 -30 -30 -30 -30 -30 -30
-21 -21 -22 -22 -23 -23 -23 -24 -25 -26 -27 -29 -30 -31 -31 -31 -32 -32 -32 -32 -33 -33 -33 -33 -33 -33 -32 -32 -31 -30 -30 -30 -30 -30 -30 -30 -30 -30
-22 -22 -23 -23 -23 -24 -24 -25 -26 -28 -29 -30 -31 -31 -31 -32 -32 -33 -33 -33 -34 -34 -33 -33 -33 -33 -31 -31 -31 -31 -31 -31 -31 -31 -31 -31 -30 -30
-22 -23 -23 -23 -24 -25 -25 -27 -28 -30 -31 -31 -31 -31 -32 -33 -33 -33 -34 -34 -35 -34 -34 -34 -33 -32 -32 -31 -31 -32 -32 -32 -32 -32 -32 -32 -31 -31
-22 -23 -24 -24 -25 -26 -27 -28 -30 -31 -31 -31 -31 -32 -33 -33 -33 -34 -34 -35 -35 -35 -34 -34 -33 -32 -32 -32 -32 -32 -33 -33 -33 -33 -33 -32 -32 -31
-23 -24 -24 -25 -26 -27 -29 -30 -31 -31 -31 -31 -32 -33 -33 -33 -34 -34 -34 -35 -35 -35 -35 -34 -33 -32 -32 -32 -32 -33 -33 -33 -33 -32 -32 -32 -32 -32
-24 -25 -25 -26 -27 -29 -30 -31 -31 -32 -32 -32 -32 -33 -33 -34 -34 -34 -35 -35 -36 -35 -35 -35 -33 -33 -33 -33 -33 -33 -33 -33 -32 -32 -32 -32 -32 -32
-25 -25 -26 -27 -29 -30 -31 -31 -32 -32 -32 -32 -32 -33 -33 -34 -34 -35 -35 -35 -35 -35 -35 -35 -34 -33 -33 -33 -33 -33 -33 -33 -32 -32 -32 -32 -32 -31
-25 -26 -27 -28 -30 -31 -32 -32 -32 -32 -32 -32 -33 -34 -34 -34 -35 -35 -35 -35 -36 -35 -35 -35 -34 -34 -34 -33 -33 -33 -33 -33 -33 -32 -32 -32 -32 -32
-26 -27 -28 -30 -31 -32 -32 -32 -32 -32 -32 -32 -33 -34 -34 -34 -35 -35 -35 -35 -35 -36 -35 -35 -34 -34 -34 -34 -34 -33 -33 -33 -33 -33 -33 -32 -32 -32
-26 -28 -30 -31 -32 -32 -32 -32 -32 -33 -32 -33 -34 -34 -34 -35 -35 -35 -35 -35 -35 -36 -35 -35 -35 -34 -35 -34 -34 -33 -33 -33 -33 -33 -34 -34 -34 -33
-27 -29 -31 -32 -32 -32 -32 -33 -33 -33 -33 -34 -34 -34 -34 -35 -35 -35 -35 -35 -35 -36 -36 -36 -35 -35 -35 -35 -35 -34 -34 -34 -34 -35 -35 -35 -36 -36
-29 -30 -31 -32 -32 -33 -33 -34 -34 -34 -34 -34 -35 -35 -35 -35 -35 -35 -35 -35 -36 -36 -36 -36 -36 -35 -35 -35 -35 -35 -34 -35 -35 -36 -36 -37 -37 -37
-30 -31 -31 -32 -32 -33 -34 -35 -34 -35 -35 -35 -35 -35 -35 -36 -36 -35 -36 -36 -36 -36 -36 -36 -36 -36 -35 -35 -35 -35 -35 -35 -36 -37 -37 -37 -37 -37
-30 -31 -31 -32 -32 -34 -35 -37 -35 -36 -35 -35 -35 -35 -35 -36 -36 -36 -36 -36 -36 -36 -36 -36 -36 -36 -36 -35 -35 -35 -36 -36 -36 -37 -37 -37 -37 -37
-30 -31 -32 -33 -33 -35 -36 -36 -36 -36 -36 -35 -35 -35 -36 -36 -36 -36 -36 -36 -36 -36 -36 -36 -36 -37 -36 -36 -36 -36 -36 -36 -37 -37 -37 -37 -37 -37
-31 -32 -33 -33 -33 -35 -36 -36 -36 -36 -36 -35 -36 -36 -36 -36 -37 -36 -36 -36 -36 -36 -36 -36 -37 -37 -36 -36 -36 -36 -36 -37 -37 -37 -37 -37 -37 -36
-32 -33 -33 -33 -34 -35 -35 -36 -36 -36 -35 -35 -36 -36 -36 -37 -37 -36 -36 -36 -36 -36 -36 -37 -37 -37 -37 -36 -36 -36 -36 -37 -37 -37 -37 -36 -36 -36
-33 -33 -33 -33 -34 -35 -35 -36 -36 -36 -36 -36 -36 -36 -36 -37 -37 -36 -36 -36 -36 -36 -36 -36 -37 -37 -37 -36 -36 -36 -36 -37 -37 -37 -37 -36 -36 -36
-33 -33 -33 -34 -34 -35 -35 -36 -36 -36 -36 -36 -36 -36 -37 -37 -37 -37 -36 -36 -36 -36 -36 -36 -37 -37 -37 -37 -36 -36 -36 -37 -37 -36 -36 -36 -36 -36
-33 -33 -33 -35 -35 -36 -36 -36 -36 -36 -36 -36 -36 -36 -37 -37 -37 -37 -36 -36 -36 -36 -36 -36 -36 -37 -37 -37 -36 -36 -36 -36 -36 -36 -36 -36 -36 -36
-33 -34 -34 -36 -36 -37 -37 -37 -36 -37 -37 -36 -36 -37 -38 -37 -37 -37 -36 -36 -36 -36 -36 -36 -36 -37 -37 -37 -37 -36 -36 -36 -36 -36 -35 -35 -35 -35

GFSNE_500_temp_060.txt.gz
Temp
-19 -20 -20 -20 -20 -21 -21 -21 -22 -22 -23 -24 -24 -24 -25 -26 -27 -29 -30 -30 -31 -31 -32 -32 -32 -32 -32 -32 -32 -32 -31 -31 -31 -30 -30 -29 -29 -29
-19 -20 -20 -20 -20 -21 -22 -22 -23 -23 -23 -24 -25 -26 -27 -29 -30 -31 -31 -31 -31 -32 -32 -32 -32 -33 -33 -33 -33 -32 -32 -32 -31 -31 -31 -30 -30 -30
-20 -20 -21 -21 -21 -22 -22 -23 -23 -24 -24 -25 -26 -27 -28 -30 -31 -31 -31 -31 -32 -32 -32 -33 -33 -34 -34 -34 -33 -33 -32 -32 -31 -31 -30 -30 -30 -30
-21 -21 -21 -21 -22 -22 -23 -23 -24 -25 -25 -26 -28 -29 -30 -31 -31 -32 -32 -32 -32 -33 -33 -33 -34 -34 -34 -33 -33 -32 -32 -31 -31 -31 -30 -30 -30 -29
-21 -21 -21 -21 -21 -23 -24 -24 -25 -25 -26 -28 -29 -30 -31 -32 -32 -32 -32 -33 -33 -33 -33 -34 -34 -34 -34 -33 -33 -32 -31 -31 -31 -31 -31 -31 -31 -31
-22 -21 -21 -22 -22 -24 -24 -25 -25 -26 -28 -29 -30 -31 -32 -32 -32 -32 -32 -33 -33 -34 -34 -34 -34 -34 -34 -33 -32 -32 -31 -31 -31 -31 -32 -32 -32 -32
-22 -22 -22 -23 -24 -24 -25 -25 -26 -28 -29 -31 -31 -32 -32 -32 -32 -32 -33 -33 -34 -34 -34 -35 -35 -34 -34 -33 -33 -32 -32 -32 -32 -32 -32 -32 -32 -32
-22 -23 -23 -24 -24 -25 -25 -26 -27 -30 -31 -31 -32 -32 -32 -32 -32 -33 -33 -34 -34 -35 -35 -35 -35 -35 -34 -33 -33 -32 -32 -33 -33 -33 -33 -32 -32 -32
-22 -23 -24 -24 -25 -25 -26 -27 -29 -30 -31 -32 -32 -32 -32 -33 -33 -33 -34 -34 -34 -35 -35 -35 -35 -35 -34 -34 -33 -33 -33 -33 -33 -33 -33 -32 -32 -32
-23 -23 -24 -25 -26 -26 -27 -28 -30 -31 -32 -32 -32 -33 -33 -33 -33 -34 -34 -34 -35 -35 -35 -35 -35 -35 -35 -34 -33 -33 -33 -33 -33 -33 -33 -32 -32 -32
-24 -24 -25 -26 -26 -27 -29 -30 -31 -32 -32 -32 -33 -33 -34 -34 -34 -34 -34 -35 -35 -35 -35 -35 -35 -35 -35 -34 -34 -33 -33 -34 -34 -33 -33 -33 -32 -32
-24 -25 -25 -26 -27 -29 -30 -31 -31 -32 -33 -33 -33 -34 -34 -35 -35 -35 -35 -35 -35 -35 -35 -35 -36 -35 -35 -35 -34 -34 -34 -34 -34 -33 -33 -33 -33 -33
-25 -25 -26 -27 -28 -30 -30 -31 -32 -33 -33 -34 -35 -35 -35 -35 -35 -35 -35 -35 -35 -35 -36 -36 -36 -36 -35 -35 -35 -34 -34 -34 -34 -34 -34 -34 -34 -34
-25 -26 -27 -28 -29 -30 -31 -31 -33 -33 -34 -35 -36 -36 -36 -36 -36 -35 -35 -36 -35 -35 -36 -36 -36 -36 -36 -36 -35 -35 -35 -34 -34 -34 -35 -35 -36 -36
-26 -27 -28 -30 -30 -31 -31 -32 -33 -33 -36 -36 -37 -36 -37 -36 -36 -36 -36 -36 -36 -36 -35 -36 -36 -36 -36 -36 -36 -35 -35 -34 -35 -35 -36 -36 -37 -37
-26 -28 -29 -30 -31 -31 -32 -33 -33 -33 -35 -36 -36 -36 -37 -36 -36 -36 -36 -36 -36 -36 -36 -36 -36 -36 -36 -36 -36 -36 -35 -35 -36 -36 -37 -37 -37 -37
-27 -29 -30 -31 -32 -32 -33 -33 -33 -33 -35 -36 -36 -36 -36 -36 -36 -36 -36 -36 -36 -36 -36 -36 -36 -36 -36 -36 -36 -36 -36 -36 -36 -36 -37 -37 -37 -37
-29 -30 -30 -31 -32 -33 -33 -33 -33 -34 -35 -36 -36 -36 -36 -36 -36 -36 -36 -37 -36 -36 -36 -36 -36 -36 -36 -36 -36 -36 -36 -36 -36 -36 -36 -36 -36 -36
-30 -31 -31 -32 -33 -33 -33 -33 -34 -34 -35 -36 -36 -36 -36 -36 -36 -36 -36 -37 -36 -36 -36 -36 -36 -36 -36 -36 -36 -36 -36 -36 -36 -36 -36 -36 -36 -36
-31 -31 -32 -33 -33 -33 -34 -34 -35 -35 -36 -36 -36 -36 -36 -36 -36 -36 -37 -37 -36 -36 -36 -36 -36 -36 -36 -36 -36 -36 -36 -36 -36 -36 -36 -36 -36 -36
-32 -32 -33 -33 -34 -34 -34 -34 -35 -36 -36 -36 -36 -36 -36 -36 -36 -37 -37 -37 -36 -36 -36 -36 -36 -36 -36 -37 -37 -36 -36 -36 -36 -36 -36 -36 -36 -36
-32 -33 -33 -34 -34 -35 -35 -36 -37 -37 -37 -37 -37 -37 -37 -37 -37 -37 -37 -37 -37 -36 -36 -36 -36 -36 -36 -37 -37 -36 -36 -36 -36 -36 -36 -36 -36 -36
-33 -33 -34 -35 -35 -35 -36 -37 -38 -38 -37 -37 -37 -37 -37 -37 -37 -38 -37 -37 -37 -36 -36 -36 -36 -36 -36 -37 -37 -37 -36 -36 -36 -36 -36 -36 -36 -36

GFSNE_500_temp_063.txt.gz
Temp
-18 -18 -18 -18 -18 -19 -20 -21 -21 -21 -21 -22 -22 -23 -23 -23 -23 -24 -25 -26 -27 -29 -30 -31 -31 -31 -32 -32 -32 -32 -32 -32 -32 -31 -31 -31 -30 -30
-17 -17 -18 -19 -20 -21 -21 -21 -21 -22 -21 -22 -22 -23 -24 -24 -25 -26 -27 -28 -30 -31 -31 -31 -31 -32 -32 -32 -33 -33 -33 -33 -32 -32 -32 -32 -31 -31
-17 -18 -18 -19 -20 -21 -21 -21 -22 -22 -22 -22 -23 -24 -25 -25 -26 -27 -28 -30 -31 -31 -31 -31 -32 -32 -32 -33 -33 -33 -33 -33 -33 -32 -32 -32 -32 -32
-17 -18 -20 -20 -21 -21 -22 -22 -22 -23 -23 -23 -24 -25 -25 -27 -28 -29 -30 -31 -31 -32 -32 -32 -32 -33 -33 -33 -34 -34 -33 -33 -33 -32 -32 -31 -31 -31
-19 -19 -20 -21 -21 -21 -22 -22 -22 -23 -24 -24 -25 -25 -26 -28 -29 -31 -31 -32 -32 -32 -32 -32 -33 -33 -33 -34 -34 -34 -33 -33 -32 -32 -32 -31 -31 -31
-20 -21 -21 -21 -21 -21 -22 -22 -23 -24 -24 -25 -26 -26 -28 -29 -31 -32 -32 -32 -32 -33 -33 -33 -33 -33 -34 -34 -34 -34 -33 -33 -32 -32 -32 -32 -31 -31
-21 -21 -22 -22 -22 -22 -23 -24 -25 -25 -26 -26 -27 -29 -30 -31 -32 -32 -33 -33 -33 -33 -33 -33 -33 -33 -34 -34 -34 -33 -33 -33 -33 -32 -32 -32 -32 -32
-22 -22 -22 -22 -22 -22 -23 -24 -25 -26 -26 -27 -29 -30 -31 -32 -32 -33 -33 -33 -33 -34 -34 -34 -34 -34 -34 -34 -34 -34 -33 -33 -33 -33 -32 -32 -32 -32
-22 -22 -22 -22 -23 -24 -24 -24 -24 -25 -27 -28 -29 -30 -32 -32 -33 -33 -34 -34 -34 -34 -34 -34 -35 -35 -35 -35 -35 -34 -34 -33 -33 -33 -33 -32 -32 -32
-22 -22 -22 -22 -23 -24 -25 -25 -26 -27 -28 -29 -30 -31 -32 -33 -34 -34 -34 -35 -35 -35 -35 -35 -35 -35 -35 -35 -35 -34 -34 -34 -33 -33 -33 -32 -32 -32
-22 -22 -22 -23 -24 -25 -26 -26 -27 -28 -30 -31 -31 -32 -32 -33 -34 -35 -35 -35 -35 -35 -35 -35 -35 -35 -35 -35 -35 -35 -34 -34 -34 -34 -33 -33 -32 -32
-22 -22 -23 -23 -24 -25 -26 -26 -27 -29 -30 -31 -32 -32 -33 -34 -35 -36 -36 -36 -36 -36 -36 -35 -35 -35 -35 -35 -35 -35 -35 -34 -34 -34 -34 -33 -33 -32
-22 -23 -23 -24 -25 -26 -26 -27 -29 -30 -31 -32 -32 -33 -34 -34 -35 -36 -36 -36 -36 -36 -36 -36 -36 -36 -35 -35 -36 -35 -35 -34 -34 -34 -33 -33 -33 -33
-23 -23 -24 -25 -26 -26 -27 -28 -29 -30 -31 -32 -33 -33 -34 -36 -37 -37 -36 -36 -36 -36 -36 -36 -36 -36 -35 -35 -36 -36 -35 -35 -34 -34 -34 -34 -34 -35
-24 -25 -25 -26 -27 -27 -28 -29 -30 -31 -32 -33 -33 -34 -36 -36 -37 -36 -37 -37 -36 -36 -36 -36 -36 -36 -36 -36 -36 -36 -35 -35 -35 -35 -35 -35 -35 -36
-24 -25 -26 -27 -28 -29 -29 -30 -31 -32 -33 -33 -33 -34 -35 -36 -36 -36 -36 -36 -36 -36 -36 -36 -36 -36 -36 -36 -36 -36 -36 -35 -35 -35 -35 -36 -36 -37
-25 -26 -27 -28 -29 -30 -30 -31 -31 -32 -33 -33 -33 -34 -35 -36 -36 -36 -36 -36 -36 -36 -37 -37 -36 -36 -36 -36 -36 -36 -36 -35 -35 -35 -36 -36 -36 -37
-27 -28 -28 -30 -31 -31 -31 -32 -32 -33 -33 -34 -34 -35 -36 -37 -37 -36 -36 -36 -36 -36 -37 -37 -36 -36 -36 -36 -36 -36 -36 -36 -36 -36 -36 -36 -37 -36
-28 -29 -30 -31 -32 -32 -32 -33 -33 -33 -34 -34 -35 -36 -36 -37 -37 -36 -36 -36 -36 -37 -37 -37 -36 -36 -36 -36 -36 -36 -36 -36 -36 -36 -36 -36 -37 -36
-30 -31 -31 -32 -32 -32 -33 -34 -34 -35 -35 -35 -36 -37 -37 -37 -37 -36 -36 -36 -37 -37 -37 -37 -36 -36 -36 -36 -36 -36 -36 -36 -36 -36 -36 -36 -36 -36
-31 -32 -32 -33 -33 -33 -34 -34 -35 -36 -36 -37 -37 -37 -37 -37 -37 -37 -37 -37 -37 -37 -37 -37 -36 -36 -36 -36 -36 -36 -36 -36 -36 -36 -36 -36 -36 -36
-32 -32 -33 -33 -33 -34 -35 -35 -36 -36 -38 -38 -38 -38 -37 -37 -37 -37 -37 -37 -37 -37 -37 -37 -36 -36 -36 -36 -36 -36 -36 -36 -36 -36 -36 -36 -36 -36
-32 -33 -34 -34 -34 -35 -36 -36 -36 -37 -38 -39 -39 -38 -38 -38 -38 -38 -38 -38 -38 -37 -37 -37 -37 -36 -36 -36 -36 -36 -36 -36 -36 -36 -36 -36 -36 -36

GFSNE_500_temp_069.txt.gz
Temp
-16 -16 -17 -17 -17 -17 -17 -18 -19 -19 -19 -20 -20 -21 -22 -22 -22 -22 -22 -22 -22 -22 -22 -23 -24 -25 -27 -28 -29 -30 -31 -31 -32 -32 -32 -32 -32 -32
-16 -16 -17 -18 -18 -18 -18 -18 -18 -19 -19 -20 -21 -21 -22 -22 -22 -22 -22 -22 -22 -23 -24 -25 -26 -27 -29 -30 -31 -31 -32 -32 -32 -32 -32 -32 -32 -32
-17 -17 -17 -17 -17 -17 -18 -19 -19 -19 -19 -20 -20 -21 -22 -22 -22 -23 -23 -23 -24 -24 -25 -26 -27 -29 -30 -31 -32 -32 -32 -33 -33 -33 -33 -33 -33 -33
-17 -17 -17 -17 -18 -18 -19 -19 -19 -20 -20 -20 -21 -22 -22 -22 -22 -23 -23 -23 -23 -24 -25 -27 -28 -29 -30 -32 -32 -33 -34 -34 -34 -34 -34 -34 -34 -34
-17 -17 -17 -18 -18 -18 -19 -19 -20 -20 -21 -21 -21 -22 -22 -22 -22 -22 -23 -24 -25 -26 -28 -29 -30 -31 -31 -32 -33 -34 -34 -34 -34 -34 -34 -34 -34 -34
-17 -17 -18 -18 -18 -19 -19 -20 -20 -21 -21 -22 -22 -22 -22 -23 -23 -23 -24 -25 -26 -27 -29 -31 -31 -32 -33 -33 -33 -34 -35 -35 -35 -35 -35 -35 -34 -34
-18 -18 -18 -18 -19 -19 -19 -20 -21 -21 -22 -22 -22 -22 -22 -23 -24 -25 -25 -26 -28 -30 -31 -32 -33 -33 -34 -34 -34 -35 -35 -35 -35 -35 -35 -35 -35 -34
-18 -18 -18 -19 -19 -20 -20 -21 -21 -22 -22 -22 -22 -22 -23 -23 -25 -26 -27 -28 -29 -31 -32 -32 -34 -34 -34 -34 -35 -35 -35 -35 -35 -35 -35 -35 -35 -34
-19 -19 -19 -20 -20 -20 -21 -21 -22 -23 -23 -23 -23 -23 -24 -25 -26 -27 -28 -29 -30 -31 -33 -33 -34 -34 -35 -35 -36 -36 -36 -35 -36 -36 -35 -35 -35 -34
-19 -19 -20 -20 -20 -21 -21 -21 -22 -23 -23 -23 -24 -24 -25 -26 -27 -28 -29 -30 -31 -32 -34 -33 -35 -35 -36 -36 -36 -36 -36 -36 -36 -36 -35 -35 -35 -35
-20 -20 -20 -20 -21 -21 -21 -22 -22 -22 -23 -23 -24 -25 -26 -27 -28 -30 -30 -31 -31 -33 -34 -34 -35 -36 -36 -36 -36 -36 -36 -36 -36 -36 -36 -35 -35 -35
-20 -20 -21 -21 -21 -22 -22 -22 -22 -23 -23 -24 -25 -26 -27 -28 -29 -31 -31 -31 -32 -33 -36 -35 -35 -36 -36 -36 -36 -36 -36 -36 -36 -36 -36 -36 -35 -35
-21 -21 -21 -22 -22 -22 -23 -23 -23 -23 -24 -24 -25 -26 -28 -29 -30 -31 -31 -32 -33 -34 -36 -35 -36 -36 -36 -36 -36 -36 -36 -36 -36 -36 -36 -36 -35 -35
-21 -21 -22 -22 -22 -23 -23 -23 -24 -24 -25 -26 -27 -28 -29 -30 -31 -32 -32 -33 -34 -34 -36 -36 -36 -36 -36 -36 -36 -36 -36 -36 -36 -36 -36 -36 -35 -35
-21 -22 -22 -23 -23 -23 -23 -24 -25 -25 -26 -27 -28 -30 -31 -31 -32 -32 -33 -34 -35 -35 -37 -37 -37 -37 -36 -36 -36 -37 -36 -36 -36 -36 -36 -36 -36 -35
-22 -22 -23 -23 -23 -24 -24 -25 -26 -27 -28 -29 -30 -31 -32 -32 -33 -33 -34 -35 -35 -36 -37 -37 -37 -37 -36 -36 -36 -37 -36 -36 -36 -36 -36 -36 -36 -36
-22 -23 -23 -23 -24 -25 -25 -26 -27 -29 -30 -31 -31 -32 -33 -33 -34 -34 -35 -36 -36 -38 -37 -37 -37 -37 -36 -36 -37 -37 -37 -36 -36 -36 -36 -36 -36 -35
-23 -23 -24 -24 -25 -26 -26 -27 -29 -30 -31 -32 -33 -33 -34 -34 -35 -36 -37 -37 -38 -38 -38 -38 -38 -37 -37 -37 -37 -37 -36 -36 -36 -36 -36 -36 -36 -35
-24 -24 -25 -26 -26 -27 -28 -29 -30 -31 -32 -33 -34 -34 -35 -35 -38 -38 -38 -38 -38 -38 -38 -38 -37 -37 -37 -37 -37 -37 -37 -36 -37 -36 -36 -36 -36 -36
-25 -26 -26 -27 -28 -29 -30 -31 -31 -32 -33 -34 -35 -35 -36 -37 -38 -39 -38 -39 -39 -39 -38 -38 -37 -37 -37 -37 -37 -36 -36 -37 -37 -37 -36 -36 -36 -36
-26 -27 -27 -28 -30 -31 -31 -32 -33 -33 -34 -35 -36 -36 -37 -38 -38 -39 -39 -39 -39 -39 -38 -38 -37 -37 -38 -37 -37 -37 -37 -37 -37 -37 -37 -36 -36 -36
-27 -28 -29 -30 -31 -32 -32 -33 -33 -34 -35 -36 -36 -37 -37 -38 -39 -39 -39 -39 -39 -39 -38 -38 -38 -38 -38 -38 -37 -37 -37 -37 -37 -37 -37 -37 -36 -36
-29 -30 -31 -32 -32 -32 -33 -33 -35 -35 -36 -37 -37 -37 -38 -38 -38 -40 -40 -40 -39 -39 -39 -39 -38 -38 -38 -38 -37 -37 -37 -37 -37 -37 -37 -37 -37 -36

GFSNE_500_temp_072.txt.gz
Temp
-17 -17 -17 -16 -16 -17 -17 -17 -17 -17 -17 -18 -18 -19 -19 -20 -20 -20 -21 -21 -22 -22 -22 -22 -22 -22 -23 -24 -24 -26 -27 -28 -29 -30 -31 -31 -32 -32
-17 -17 -17 -17 -17 -17 -17 -17 -17 -17 -17 -18 -19 -20 -21 -21 -20 -21 -21 -22 -22 -22 -23 -23 -23 -23 -24 -26 -26 -28 -30 -31 -31 -31 -31 -32 -33 -33
-17 -17 -17 -17 -17 -17 -17 -17 -18 -18 -18 -19 -19 -20 -20 -20 -21 -22 -22 -23 -23 -23 -23 -24 -24 -24 -25 -26 -28 -29 -31 -31 -31 -32 -33 -34 -34 -34
-17 -17 -17 -17 -17 -17 -17 -18 -18 -18 -18 -18 -19 -20 -20 -21 -21 -22 -22 -22 -22 -23 -23 -24 -25 -26 -27 -29 -30 -31 -31 -32 -32 -33 -34 -34 -34 -34
-17 -17 -17 -17 -17 -17 -18 -18 -18 -18 -19 -19 -19 -20 -20 -21 -22 -22 -23 -23 -23 -23 -24 -25 -26 -28 -28 -30 -31 -32 -32 -32 -33 -34 -34 -35 -35 -34
-18 -18 -17 -18 -17 -18 -18 -18 -18 -19 -19 -19 -19 -20 -20 -22 -22 -22 -22 -23 -23 -24 -25 -26 -28 -30 -31 -32 -32 -33 -33 -33 -34 -34 -35 -35 -35 -35
-18 -18 -18 -18 -18 -18 -18 -19 -19 -19 -19 -20 -20 -20 -21 -22 -22 -22 -23 -23 -24 -25 -26 -28 -29 -31 -32 -32 -33 -34 -34 -34 -35 -35 -35 -35 -35 -35
-18 -18 -18 -18 -18 -18 -19 -19 -19 -20 -20 -20 -21 -21 -21 -22 -22 -22 -23 -23 -24 -26 -28 -29 -31 -32 -34 -34 -35 -35 -35 -35 -36 -36 -36 -36 -36 -35
-18 -18 -18 -18 -18 -19 -19 -19 -20 -21 -21 -21 -21 -22 -22 -23 -23 -23 -24 -25 -26 -27 -29 -30 -31 -32 -33 -34 -35 -36 -35 -36 -36 -36 -36 -36 -36 -36
-18 -19 -19 -19 -19 -19 -20 -20 -21 -21 -22 -22 -22 -23 -23 -23 -24 -24 -25 -26 -27 -29 -30 -31 -32 -32 -33 -35 -36 -36 -36 -36 -36 -36 -36 -36 -36 -36
-19 -19 -19 -19 -20 -20 -20 -20 -21 -21 -22 -22 -23 -23 -24 -24 -25 -25 -26 -27 -29 -30 -31 -32 -32 -33 -34 -35 -36 -37 -36 -36 -36 -36 -36 -36 -36 -36
-19 -19 -19 -20 -20 -20 -21 -21 -21 -22 -22 -22 -23 -24 -24 -25 -26 -27 -28 -29 -30 -31 -32 -33 -33 -34 -34 -36 -37 -37 -36 -36 -36 -36 -36 -36 -36 -36
-20 -20 -20 -21 -21 -21 -21 -21 -21 -22 -22 -23 -23 -23 -24 -25 -26 -27 -29 -30 -31 -32 -33 -33 -34 -35 -35 -36 -37 -37 -37 -36 -36 -36 -36 -36 -36 -36
-20 -21 -21 -21 -21 -22 -22 -22 -22 -23 -23 -23 -24 -24 -25 -26 -27 -29 -30 -31 -32 -33 -33 -33 -34 -35 -36 -37 -37 -37 -37 -36 -36 -36 -36 -36 -36 -36
-20 -21 -22 -22 -22 -22 -23 -23 -23 -23 -24 -24 -25 -25 -26 -28 -29 -30 -31 -32 -33 -33 -34 -35 -35 -36 -37 -37 -38 -37 -36 -36 -36 -37 -36 -36 -36 -36
-22 -22 -22 -22 -23 -23 -23 -24 -24 -24 -25 -25 -26 -27 -28 -29 -30 -32 -32 -33 -34 -34 -35 -36 -37 -38 -37 -38 -37 -37 -36 -37 -37 -37 -37 -36 -36 -36
-22 -22 -23 -23 -23 -23 -24 -25 -25 -25 -26 -27 -28 -29 -30 -31 -32 -33 -34 -35 -35 -35 -36 -38 -38 -38 -38 -38 -38 -37 -37 -37 -37 -37 -36 -36 -36 -36
-22 -23 -23 -23 -24 -24 -24 -25 -26 -26 -27 -29 -30 -30 -31 -32 -33 -34 -35 -36 -36 -38 -38 -38 -38 -38 -38 -38 -38 -37 -37 -37 -37 -37 -37 -36 -36 -36
-23 -23 -24 -24 -24 -25 -25 -26 -27 -28 -29 -30 -31 -31 -32 -33 -34 -35 -36 -38 -38 -38 -38 -38 -38 -38 -38 -38 -37 -37 -37 -37 -37 -37 -36 -37 -36 -36
-24 -24 -25 -25 -25 -26 -27 -27 -29 -30 -30 -31 -32 -32 -33 -34 -36 -36 -37 -38 -38 -38 -39 -39 -39 -39 -38 -38 -38 -37 -38 -37 -37 -37 -37 -37 -37 -36
-25 -25 -25 -26 -26 -27 -28 -30 -30 -31 -31 -32 -32 -33 -34 -35 -37 -37 -38 -38 -39 -39 -39 -39 -39 -39 -38 -38 -38 -38 -38 -37 -37 -37 -37 -37 -36 -36
-25 -25 -26 -27 -28 -29 -30 -31 -31 -32 -32 -33 -33 -35 -36 -37 -37 -38 -38 -39 -40 -40 -40 -40 -39 -39 -38 -38 -38 -38 -38 -37 -37 -37 -37 -37 -36 -36
-26 -26 -28 -29 -30 -31 -31 -32 -32 -33 -33 -34 -35 -36 -37 -38 -38 -38 -38 -39 -40 -40 -40 -40 -40 -39 -39 -39 -38 -38 -38 -37 -37 -37 -37 -37 -37 -37

GFSNE_500_temp_075.txt.gz
Temp
-17 -17 -17 -17 -16 -16 -16 -17 -17 -17 -17 -17 -18 -18 -18 -18 -18 -18 -18 -19 -19 -20 -20 -21 -21 -22 -22 -22 -23 -23 -23 -24 -25 -26 -27 -28 -29 -30
-17 -17 -17 -17 -17 -17 -17 -17 -17 -17 -17 -17 -18 -18 -18 -18 -18 -19 -19 -20 -20 -21 -21 -21 -22 -23 -23 -23 -23 -24 -25 -26 -26 -28 -28 -30 -31 -31
-17 -17 -17 -17 -17 -17 -17 -17 -18 -18 -17 -18 -18 -18 -19 -19 -20 -20 -20 -21 -21 -22 -22 -22 -23 -23 -23 -24 -24 -25 -26 -27 -29 -29 -31 -31 -32 -32
-17 -17 -17 -17 -17 -17 -17 -18 -18 -18 -18 -18 -18 -19 -19 -19 -20 -20 -21 -21 -21 -22 -22 -23 -23 -23 -24 -24 -25 -27 -29 -30 -30 -32 -32 -33 -33 -33
-17 -18 -18 -18 -18 -18 -18 -18 -18 -18 -18 -18 -18 -19 -19 -20 -20 -21 -21 -21 -22 -22 -23 -23 -23 -24 -24 -25 -26 -28 -30 -31 -32 -32 -33 -33 -33 -33
-18 -18 -18 -18 -18 -18 -18 -18 -18 -18 -19 -19 -19 -19 -20 -21 -21 -21 -21 -21 -22 -23 -23 -23 -23 -24 -25 -27 -28 -29 -31 -32 -33 -33 -34 -34 -34 -34
-18 -18 -18 -18 -18 -19 -19 -19 -19 -19 -19 -20 -20 -20 -21 -21 -21 -21 -21 -22 -22 -23 -23 -23 -24 -25 -26 -28 -30 -30 -32 -33 -33 -34 -35 -35 -35 -35
-18 -18 -19 -19 -19 -19 -19 -19 -20 -20 -20 -20 -20 -21 -21 -21 -21 -21 -22 -22 -22 -23 -23 -23 -25 -26 -28 -29 -31 -32 -32 -33 -33 -34 -35 -35 -35 -36
-19 -19 -19 -19 -19 -20 -20 -20 -20 -20 -20 -20 -21 -21 -21 -22 -21 -22 -22 -22 -22 -23 -24 -24 -26 -27 -29 -30 -32 -33 -33 -33 -34 -35 -36 -35 -36 -36
-19 -19 -19 -20 -20 -20 -20 -20 -20 -20 -21 -21 -21 -22 -22 -22 -22 -22 -23 -23 -23 -24 -25 -25 -27 -28 -30 -31 -32 -33 -33 -34 -35 -36 -36 -36 -36 -36
-19 -19 -19 -19 -20 -20 -20 -20 -20 -21 -21 -22 -22 -22 -23 -23 -23 -23 -24 -24 -24 -25 -26 -27 -28 -30 -31 -32 -33 -34 -34 -35 -36 -36 -36 -36 -36 -36
-19 -19 -20 -20 -20 -20 -20 -21 -21 -21 -22 -22 -23 -23 -23 -24 -24 -25 -25 -25 -26 -26 -28 -28 -30 -31 -32 -33 -34 -34 -35 -36 -36 -37 -37 -36 -36 -36
-19 -20 -20 -21 -21 -21 -21 -21 -21 -22 -22 -23 -23 -23 -24 -24 -25 -26 -26 -26 -27 -27 -29 -30 -30 -32 -33 -34 -34 -35 -37 -37 -37 -37 -36 -36 -36 -36
-20 -20 -21 -21 -21 -21 -21 -22 -22 -22 -23 -23 -23 -24 -24 -24 -25 -26 -26 -28 -28 -29 -30 -31 -31 -32 -34 -34 -36 -37 -37 -37 -37 -37 -36 -36 -36 -36
-21 -21 -21 -21 -21 -21 -22 -22 -22 -23 -23 -24 -24 -24 -25 -25 -26 -26 -28 -29 -29 -30 -31 -31 -33 -34 -35 -35 -37 -37 -38 -37 -38 -37 -36 -36 -36 -36
-20 -21 -21 -21 -21 -22 -22 -23 -23 -24 -24 -24 -25 -25 -25 -26 -27 -28 -29 -29 -30 -31 -32 -32 -34 -35 -36 -37 -38 -38 -38 -38 -38 -37 -37 -37 -37 -37
-21 -21 -21 -22 -22 -23 -23 -23 -24 -24 -25 -25 -25 -26 -27 -27 -29 -30 -30 -31 -32 -32 -33 -35 -36 -36 -37 -38 -38 -38 -38 -38 -37 -37 -37 -37 -37 -36
-21 -22 -22 -23 -23 -23 -24 -24 -25 -25 -26 -26 -27 -27 -28 -29 -30 -31 -32 -32 -33 -34 -36 -37 -38 -38 -39 -39 -38 -38 -38 -38 -37 -37 -37 -37 -37 -36
-22 -23 -23 -23 -24 -24 -24 -25 -25 -26 -26 -27 -28 -29 -30 -30 -31 -32 -32 -33 -34 -36 -37 -38 -39 -39 -38 -39 -38 -38 -38 -38 -37 -37 -37 -37 -37 -37
-23 -23 -24 -24 -24 -24 -25 -26 -26 -27 -28 -29 -30 -30 -31 -31 -32 -33 -33 -34 -36 -38 -39 -39 -39 -39 -39 -39 -39 -38 -38 -38 -38 -38 -37 -37 -37 -37
-24 -24 -24 -25 -25 -26 -26 -27 -28 -29 -29 -30 -31 -31 -32 -32 -33 -34 -34 -36 -37 -38 -39 -39 -39 -39 -39 -39 -39 -39 -38 -38 -38 -38 -38 -37 -37 -37
-24 -25 -25 -26 -26 -27 -27 -28 -30 -30 -31 -32 -32 -33 -33 -34 -34 -35 -36 -37 -38 -38 -39 -40 -40 -40 -40 -39 -39 -39 -38 -38 -38 -38 -38 -37 -37 -37
-25 -25 -26 -27 -27 -28 -29 -30 -31 -32 -32 -33 -33 -34 -34 -35 -36 -37 -37 -38 -39 -39 -39 -40 -40 -40 -40 -40 -40 -39 -39 -39 -38 -38 -38 -37 -37 -37